CAPE
204 221 205 445 783 1102 1362 1623 1722 1733 1502 1387 743 1200 1093 523 146 3 3 0 178 517 659 928 1212 1499 1702 1873 2155 2451 2611 2277 2065 1998 2027 2059 1890 1827 1433 1349 1611 1658 1337
57 452 791 897 1138 1456 1693 1709 1537 1597 1338 982 525 475 766 506 199 6 10 38 0 181 493 736 1042 1311 1484 1896 2371 2621 2171 1944 1997 1777 1781 2002 1938 1644 1031 1434 1580 1391 1164
1102 1153 1093 1198 1539 1716 2141 2008 1530 1416 882 649 620 399 465 209 81 11 8 45 146 94 315 665 895 1080 1205 1682 2355 2085 2006 1805 1552 1352 1409 1900 1977 1455 934 1325 1307 1010 858
1382 1194 1159 1514 1729 2311 2481 2203 1388 1047 758 962 991 780 344 281 353 291 434 527 686 788 828 793 861 1287 1646 2030 2262 2032 1788 1519 1299 1045 1036 1734 1900 1306 884 1230 1177 704 503
1405 1519 1473 1180 1710 2316 2494 2269 1436 1141 775 835 875 905 731 847 864 822 1144 1254 1218 1297 1628 1705 1637 1778 2066 2114 1818 1974 1638 1482 1128 1028 984 1381 1694 1250 722 1165 1068 683 471
1734 1806 1177 1027 1948 2233 2443 1966 1503 1270 1291 1237 862 941 926 826 854 1000 1028 1187 1407 1492 1490 1792 2267 1937 1965 1844 1537 1386 1331 1457 1330 933 1066 980 1460 1315 551 1114 1006 725 570
1910 1481 859 1278 1792 1861 2094 2214 2000 1456 1195 1163 956 878 808 833 958 967 1076 1085 1172 1078 1044 1261 1591 1265 880 144 74 200 584 1374 1606 1282 910 1006 960 1433 584 827 1082 819 568
1676 1626 931 1380 1357 1795 1916 1942 1834 1421 1172 1303 1774 883 949 816 851 847 1037 1070 1080 909 849 802 780 639 536 365 100 297 733 490 1090 1491 1428 830 847 1289 938 450 884 873 661
1568 1495 1168 1238 1193 1524 1803 1849 1924 1691 1058 848 1037 1729 1034 737 860 662 727 635 590 677 720 733 613 633 399 263 183 250 82 559 809 1194 1567 1368 787 763 1117 660 452 713 715
1523 1571 1385 1295 1390 1426 1707 1700 1801 1683 1471 1009 759 566 603 709 752 762 701 534 520 331 309 282 433 588 414 294 114 278 337 613 807 1202 1341 1274 925 730 675 885 574 337 411
1358 1368 1327 1343 1280 1305 1545 1581 1566 1639 1341 1190 884 594 365 226 201 302 267 175 363 167 250 498 734 725 765 832 1042 1123 660 853 951 907 750 742 723 580 272 657 644 536 343
1142 1429 1369 1535 1213 1274 1187 1370 1389 1464 1432 1446 873 634 570 491 474 218 220 415 387 547 591 720 839 1139 1269 1437 1122 817 839 762 525 355 429 429 499 445 259 413 785 854 667
741 1006 1063 1091 911 1265 1172 1282 1358 1319 1352 1266 1171 746 485 531 351 187 229 417 466 527 655 944 1058 1330 1614 2024 1857 1299 962 880 673 467 186 240 274 223 260 110 180 789 1273
729 829 808 712 758 828 1317 1420 1336 1271 1117 1201 1291 1260 810 479 431 445 524 604 414 570 392 705 903 1244 1590 1751 1373 1542 1387 701 634 522 536 459 196 156 192 227 155 51 148
483 486 545 705 988 1104 748 1134 983 1079 1182 1237 1067 1022 1069 915 416 545 778 645 673 206 137 578 813 1298 1106 1558 1082 1771 1298 502 325 183 131 131 163 212 196 243 280 259 31
267 274 389 502 778 1051 1184 1166 1126 1258 1235 1193 868 1172 1153 1187 995 834 824 896 679 586 47 469 878 1307 1458 1194 699 961 725 899 34 2 0 0 0 0 9 10 17 59 202
203 48 224 380 533 783 969 856 747 959 1114 1014 1090 1000 1132 1103 873 1082 1200 1100 1072 999 620 600 762 1263 1148 1267 1192 804 1152 1292 0 0 0 0 0 0 0 0 0 0 5
259 254 112 89 115 443 740 690 626 802 790 925 975 941 926 835 858 883 885 937 910 965 847 875 674 651 551 1007 661 994 782 845 0 0 0 0 0 0 0 0 0 0 0
188 118 0 0 7 29 267 719 878 603 549 656 915 913 597 939 757 854 719 936 681 1078 852 456 646 709 947 1092 431 622 283 211 101 0 0 0 0 0 0 0 0 0 0
244 147 44 0 10 193 233 492 799 567 630 662 467 364 555 504 340 406 503 476 419 460 612 699 596 342 700 1180 140 469 192 32 185 0 0 0 0 0 0 0 0 0 0
324 306 144 67 100 480 316 315 467 445 363 690 670 698 890 446 186 273 509 428 372 376 250 197 367 602 818 232 122 239 611 0 0 30 0 0 0 0 0 0 0 0 0
561 433 291 219 223 246 0 0 0 157 292 422 174 227 489 109 118 23 84 161 334 383 242 298 550 586 739 55 32 91 333 319 1 0 0 0 0 0 0 0 0 0 0
470 381 451 432 225 70 0 0 0 0 115 186 401 254 315 119 25 142 0 0 0 0 31 511 310 470 137 21 28 46 215 93 0 0 6 0 0 0 0 0 0 0 0
173 330 387 133 14 0 0 0 0 0 3 112 96 306 329 27 4 19 0 0 0 0 0 0 2 18 8 7 19 117 247 0 0 0 0 1 0 0 0 0 0 0 0
101 74 67 99 67 8 0 0 0 0 0 0 0 0 1 22 0 0 0 0 0 0 0 0 0 0 0 0 0 34 39 150 63 0 0 0 0 0 0 0 0 0 0
99 44 6 4 0 0 1 0 0 0 0 0 0 0 0 0 0 0 0 0 0 0 0 0 0 0 0 0 0 0 0 0 0 0 0 0 0 0 0 0 0 0 0
CIN
-89 -87 -113 -76 -75 -64 -45 -31 -30 -27 -36 -31 -62 -52 -62 -162 -267 -156 -133 -0 -336 -263 -244 -200 -150 -115 -112 -99 -83 -70 -58 -64 -65 -48 -40 -35 -37 -31 -40 -48 -28 -11 -8
-152 -77 -70 -58 -58 -64 -56 -43 -38 -33 -30 -22 -71 -131 -105 -157 -283 -131 -232 -314 -0 -318 -246 -201 -159 -129 -111 -87 -72 -62 -78 -88 -66 -57 -45 -44 -43 -37 -66 -39 -22 -23 -15
-53 -71 -58 -48 -45 -57 -48 -37 -46 -46 -45 -51 -82 -151 -146 -241 -301 -320 -322 -308 -249 -304 -245 -177 -136 -128 -119 -87 -60 -70 -70 -75 -80 -87 -68 -49 -41 -43 -70 -44 -27 -40 -33
-57 -63 -50 -41 -55 -41 -29 -33 -47 -56 -65 -45 -57 -92 -181 -210 -208 -217 -190 -174 -146 -118 -135 -150 -159 -143 -118 -89 -59 -65 -75 -72 -86 -99 -92 -52 -45 -50 -77 -47 -32 -47 -47
-48 -46 -41 -65 -63 -32 -32 -37 -46 -39 -59 -69 -59 -82 -133 -107 -99 -103 -76 -79 -82 -94 -73 -85 -138 -143 -109 -84 -78 -69 -72 -64 -68 -82 -88 -59 -51 -59 -106 -60 -41 -44 -44
-32 -33 -49 -68 -45 -26 -25 -45 -49 -59 -46 -46 -55 -73 -90 -117 -112 -95 -85 -73 -81 -108 -118 -122 -83 -81 -119 -120 -115 -97 -92 -63 -51 -71 -76 -82 -57 -65 -135 -70 -53 -52 -33
-25 -39 -54 -51 -44 -31 -33 -38 -37 -47 -50 -80 -60 -72 -100 -110 -98 -114 -106 -105 -116 -140 -147 -137 -101 -105 -113 -257 -263 -236 -139 -78 -60 -61 -80 -80 -86 -59 -142 -101 -65 -63 -58
-24 -26 -57 -36 -43 -26 -30 -34 -36 -32 -63 -86 -22 -37 -21 -60 -82 -114 -118 -113 -128 -149 -134 -142 -140 -166 -180 -195 -254 -227 -147 -131 -82 -58 -64 -101 -101 -81 -120 -167 -86 -68 -65
-21 -25 -40 -37 -40 -36 -16 -26 -33 -37 -32 -81 -95 -24 -16 -15 -45 -111 -115 -136 -153 -137 -135 -149 -135 -146 -204 -224 -194 -153 -223 -129 -96 -72 -70 -81 -125 -135 -108 -150 -163 -84 -64
-17 -18 -26 -35 -33 -31 -23 -21 -29 -42 -43 -34 -86 -106 -116 -82 -32 -29 -81 -118 -148 -163 -150 -168 -128 -121 -174 -169 -195 -146 -140 -98 -105 -93 -83 -79 -115 -135 -130 -117 -149 -161 -115
-19 -16 -12 -26 -28 -23 -24 -24 -27 -29 -35 -36 -46 -71 -123 -158 -177 -81 -54 -91 -123 -166 -129 -88 -71 -82 -97 -90 -60 -59 -91 -102 -90 -87 -84 -86 -99 -125 -182 -136 -133 -119 -149
-16 -18 -19 -17 -17 -19 -17 -21 -24 -26 -33 -33 -48 -61 -48 -45 -41 -73 -62 -41 -42 -49 -56 -61 -63 -53 -53 -57 -68 -95 -108 -105 -91 -93 -82 -89 -111 -99 -147 -144 -117 -112 -116
-26 -21 -21 -20 -14 -19 -24 -22 -21 -24 -23 -25 -35 -34 -57 -51 -68 -77 -51 -23 -21 -28 -32 -36 -49 -46 -46 -30 -40 -89 -106 -104 -126 -120 -132 -123 -137 -143 -145 -209 -176 -103 -78
-27 -38 -27 -14 -14 -9 -16 -18 -15 -14 -25 -20 -20 -27 -38 -51 -65 -58 -37 -18 -3 -10 -22 -22 -41 -28 -25 -25 -63 -52 -53 -126 -134 -139 -141 -134 -161 -179 -170 -179 -196 -246 -199
-51 -55 -46 -33 -24 -19 -17 -17 -9 -12 -15 -15 -17 -22 -22 -25 -49 -50 -42 -43 -18 -0 -1 -7 -6 -27 -26 -16 -56 -23 -51 -153 -182 -199 -217 -213 -229 -208 -197 -193 -175 -175 -256
-83 -85 -66 -45 -30 -22 -19 -16 -8 -10 -12 -7 -11 -14 -11 -11 -16 -22 -24 -30 -36 -15 -5 -12 -5 -17 -23 -7 -50 -37 -53 -72 -155 -90 -0 -0 -0 -0 -253 -234 -394 -315 -212
-80 -116 -84 -61 -47 -29 -23 -20 -13 -5 -6 -7 -10 -13 -11 -16 -5 -2 -9 -12 -10 -12 -1 -0 -18 -16 -14 -13 -26 -39 -13 -5 -0 -0 -0 -0 -0 -0 -0 -0 -0 -0 -147
-64 -67 -86 -93 -81 -45 -26 -25 -12 -3 -6 -5 -8 -10 -13 -11 -15 -9 -5 -7 -8 -7 -1 -1 -6 -11 -13 -15 -35 -21 -13 -6 -0 -0 -0 -0 -0 -0 -0 -0 -0 -0 -0
-62 -60 -0 -0 -66 -57 -41 -22 -16 -9 -8 -8 -7 -11 -16 -12 -11 -3 -8 -5 -5 -9 -7 -18 -3 -15 -8 -2 -19 -19 -36 -31 -60 -0 -0 -0 -0 -0 -0 -0 -0 -0 -0
-50 -61 -71 -0 -30 -57 -48 -31 -20 -20 -21 -13 -17 -15 -16 -15 -14 -16 -12 -13 -14 -15 -11 -3 -4 -16 -6 -0 -48 -3 -18 -81 -16 -0 -0 -0 -0 -0 -0 -0 -0 -0 -0
-41 -43 -53 -69 -52 -27 -36 -36 -38 -24 -16 -19 -22 -21 -20 -32 -38 -22 -14 -17 -19 -15 -19 -23 -3 -1 -1 -25 -32 -39 -0 -0 -0 -18 -0 -0 -0 -0 -0 -0 -0 -0 -0
-24 -28 -29 -37 -37 -40 -0 -0 -0 -54 -46 -36 -65 -39 -29 -90 -75 -85 -86 -81 -64 -20 -21 -16 -8 -10 -6 -77 -98 -47 -31 -5 -0 -0 -0 -0 -0 -0 -0 -0 -0 -0 -0
-15 -16 -23 -24 -43 -73 -0 -0 -0 -0 -58 -54 -34 -25 -21 -61 -116 -58 -0 -0 -0 -0 -79 -29 -28 -16 -53 -101 -84 -65 -8 -24 -0 -0 -1 -0 -0 -0 -0 -0 -0 -0 -0
-9 -13 -35 -63 -113 -65 -0 -0 -0 -0 -21 -60 -75 -39 -37 -82 -42 -59 -0 -0 -0 -0 -0 -0 -5 -42 -49 -56 -48 -29 -2 -0 -0 -0 -0 -0 -0 -0 -0 -0 -0 -0 -0
-24 -54 -72 -45 -53 -107 -0 -0 -0 -15 -0 -0 -0 -0 -11 -118 -0 -0 -0 -0 -0 -0 -0 -0 -0 -0 -0 -0 -0 -58 -18 -1 -1 -0 -0 -0 -0 -0 -0 -0 -0 -0 -0
-1 -31 -45 -66 -0 -0 -0 -0 -0 -0 -0 -0 -0 -0 -0 -0 -0 -0 -0 -0 -0 -0 -0 -0 -0 -0 -0 -0 -0 -0 -0 -0 -0 -0 -0 -0 -0 -0 -0 -0 -0 -0 -0
Wind_Speed
16 14 13 14 14 14 15 14 13 13 12 9 8 11 17 19 19 20 19 18 16 15 13 12 11 11 10 9 9 10 10 13 13 11 12 14 16 13 15 18 17 18 18
15 15 16 15 15 15 15 15 15 13 11 8 6 6 8 16 17 17 18 18 16 14 13 12 10 8 7 7 9 9 13 17 20 19 18 17 17 15 16 20 20 20 20
16 16 15 15 15 15 15 15 15 16 10 6 6 7 9 22 20 20 19 17 15 13 12 11 9 8 6 6 7 9 15 20 26 27 24 20 18 16 17 21 22 23 23
16 17 17 15 15 14 14 13 14 11 8 6 13 16 20 19 18 18 16 14 12 11 10 9 6 5 6 8 9 13 17 21 27 28 27 22 19 16 18 23 23 25 24
17 16 16 15 14 14 12 13 12 13 5 19 18 19 18 17 16 15 13 12 11 10 10 12 14 14 15 14 12 10 12 18 25 28 29 24 20 17 18 23 23 24 24
18 18 17 16 15 14 11 10 11 11 13 18 20 18 17 15 14 14 12 12 12 13 16 16 16 19 22 20 14 8 9 7 23 26 27 22 18 18 17 23 23 23 25
18 17 19 18 17 15 12 13 12 12 13 13 11 12 13 13 12 12 11 10 13 15 16 17 16 16 16 13 8 4 9 14 15 21 21 17 16 17 19 22 22 23 24
20 20 20 20 18 16 14 13 14 15 15 16 18 15 13 10 11 10 10 10 14 16 15 13 11 11 9 2 7 5 9 12 7 12 12 15 13 15 18 20 21 21 21
20 21 20 20 20 19 17 16 16 16 14 15 16 18 17 12 10 11 9 10 12 11 9 6 3 3 5 4 7 10 7 7 6 7 8 11 12 14 16 18 19 18 19
21 21 21 21 20 20 20 19 18 18 16 13 15 16 17 16 9 10 9 8 6 3 3 4 5 5 7 9 11 10 8 8 5 5 8 10 13 13 15 16 17 17 17
21 21 20 20 20 20 20 20 20 18 17 17 19 20 19 16 14 8 12 10 16 14 12 10 10 16 11 10 16 10 8 7 5 5 9 13 16 17 18 19 17 16 16
21 21 20 19 18 19 20 21 21 21 19 18 19 20 20 10 9 9 8 9 8 12 12 13 14 17 14 13 10 8 8 7 18 14 7 11 14 16 16 17 17 16 16
22 21 22 22 22 21 22 18 17 23 22 22 21 21 2 12 10 9 9 8 10 9 11 13 18 21 17 21 21 17 22 22 22 21 21 17 10 12 11 12 13 13 14
23 23 21 20 21 22 15 17 10 11 16 22 21 19 18 13 9 9 12 10 9 9 9 10 14 23 23 21 21 19 21 20 21 21 21 21 20 9 8 9 10 11 12
25 24 23 22 20 21 21 17 25 22 15 9 11 15 13 9 7 7 8 10 8 13 12 10 12 22 21 20 19 20 20 21 22 22 23 23 22 21 15 12 9 9 11
24 25 17 17 22 20 18 22 26 21 18 17 10 9 14 10 8 8 7 7 9 7 15 6 21 21 20 19 20 21 21 21 23 23 24 24 24 22 21 20 13 10 14
3 5 4 5 23 29 27 26 23 20 5 17 15 7 5 8 7 8 7 8 7 8 11 5 9 14 16 21 22 21 20 20 22 23 24 24 24 23 23 23 22 20 18
8 8 7 2 3 23 29 29 28 27 21 25 15 4 4 8 6 7 7 7 7 8 7 11 12 14 16 21 21 20 19 19 21 23 24 24 24 23 22 22 22 20 19
10 15 13 7 3 20 21 27 27 21 3 3 15 9 10 8 7 9 9 11 11 11 10 12 14 15 16 18 18 17 18 18 18 20 23 24 24 24 24 23 23 22 22
12 13 15 16 16 19 19 19 24 24 22 17 15 11 11 9 8 9 8 9 9 11 13 16 18 16 16 16 17 15 16 17 17 19 21 22 23 25 25 24 24 24 24
16 15 15 15 17 20 18 20 21 25 25 21 20 16 15 19 22 16 14 12 12 12 16 17 17 17 16 16 16 16 14 15 17 18 20 22 23 24 25 25 25 24 24
17 19 19 18 17 18 18 19 22 23 21 23 22 22 21 19 20 21 20 19 18 16 18 19 20 20 19 17 16 16 15 13 17 18 18 21 22 23 23 24 24 23 23
17 18 20 16 16 17 18 20 19 21 23 23 22 22 20 20 20 20 21 19 18 18 17 18 20 20 18 16 16 16 17 17 18 18 17 20 20 21 21 23 24 23 22
15 15 17 16 18 21 21 22 22 21 23 23 22 20 21 21 19 19 19 19 19 21 20 20 20 20 20 19 17 18 17 15 17 20 19 22 19 19 19 20 23 22 22
24 18 18 20 22 24 23 25 19 17 18 21 22 21 20 21 22 22 20 20 19 19 20 17 16 16 17 18 18 17 18 17 19 21 22 19 17 19 19 18 19 22 23
16 16 17 18 24 23 25 25 25 20 21 19 20 19 19 22 22 21 21 18 19 19 18 18 17 17 17 17 17 17 17 20 21 22 23 20 17 15 18 17 18 18 20
Wind_Direction
194 204 207 203 204 205 200 202 211 208 208 228 227 204 176 159 154 145 144 142 142 140 139 135 132 119 114 107 91 76 69 60 56 56 61 61 56 59 55 48 51 55 65
202 201 194 197 200 201 206 206 207 212 222 239 250 248 216 177 164 158 145 141 142 136 131 127 129 126 123 107 84 75 65 58 51 50 53 58 59 64 60 54 58 64 77
201 199 199 203 203 209 205 210 214 209 235 278 269 261 52 128 134 128 132 135 136 131 129 120 110 103 104 100 87 78 62 53 41 39 44 56 62 68 67 61 64 71 84
190 190 193 203 200 204 207 214 213 234 263 297 215 197 149 140 141 130 127 132 129 131 120 118 116 102 80 76 82 68 57 48 38 36 38 54 65 76 75 68 73 76 88
199 204 206 206 210 205 216 214 221 223 222 97 94 154 154 153 152 124 132 131 127 118 93 71 57 54 48 59 68 71 62 50 39 36 37 54 69 81 84 75 81 83 89
197 199 203 210 210 214 231 240 242 258 234 191 145 133 153 118 81 81 101 103 86 67 46 42 42 39 37 42 51 74 76 67 41 39 43 61 77 85 93 81 87 89 93
194 209 205 207 215 227 251 245 255 261 257 269 358 31 29 48 48 71 71 83 48 35 34 30 41 50 54 62 92 171 82 59 54 50 59 74 84 90 90 87 92 95 96
189 193 196 203 220 234 269 274 271 263 266 265 257 293 127 86 46 69 60 57 34 24 35 52 60 60 68 202 241 132 90 65 76 74 86 83 95 100 97 92 95 100 104
186 197 198 197 204 223 256 275 274 284 304 299 297 247 196 145 94 39 68 49 36 48 58 76 105 157 224 187 119 95 104 93 100 105 106 101 105 109 104 100 100 107 111
186 187 194 201 218 222 234 245 262 270 294 336 321 321 326 350 104 173 59 64 73 134 131 174 175 195 190 152 97 100 109 111 147 138 113 116 114 120 114 111 109 112 117
185 183 176 178 199 217 231 251 262 273 295 298 283 284 305 351 17 79 214 40 21 43 75 120 126 73 109 107 62 110 131 138 174 183 127 110 102 101 105 103 109 116 116
193 188 188 176 169 188 218 248 257 263 287 305 304 292 291 242 82 67 167 187 192 81 101 90 77 54 74 74 100 166 139 308 321 304 264 130 116 108 107 101 101 110 110
195 194 205 204 211 204 245 293 302 258 270 268 278 249 105 168 64 96 148 153 191 116 97 69 36 23 320 7 15 47 10 351 340 340 348 335 145 123 125 121 109 111 109
211 215 201 194 197 205 301 306 348 349 324 262 221 213 212 182 133 140 197 184 169 138 115 110 58 352 2 349 351 345 356 334 340 338 342 340 326 245 154 143 128 123 111
221 219 213 206 192 197 197 308 263 283 321 6 164 190 186 154 116 121 141 164 142 206 201 96 67 351 355 347 328 350 349 336 342 343 340 330 320 307 275 248 210 153 135
224 221 184 186 209 191 187 215 253 289 305 314 346 356 339 6 36 44 60 66 47 121 211 55 313 333 327 326 342 338 346 354 343 342 342 338 334 325 314 304 257 130 91
38 1 19 148 268 250 238 225 221 274 341 308 321 4 93 21 33 36 55 54 78 61 186 108 74 25 8 330 323 331 359 355 343 349 350 350 349 348 346 347 357 8 17
326 342 353 89 3 284 255 250 249 253 265 228 187 30 57 9 34 32 41 54 66 43 86 187 30 15 1 335 333 346 350 1 4 3 0 357 355 354 354 356 358 357 354
307 309 323 342 359 299 293 275 270 291 349 358 316 338 340 357 7 359 8 357 7 8 22 11 4 3 2 355 356 358 358 2 11 12 7 5 1 358 356 354 354 352 349
294 301 305 308 310 304 300 297 288 290 295 308 313 323 323 329 340 344 352 356 358 355 348 338 336 347 354 357 356 2 2 357 2 7 5 4 1 360 358 357 355 355 356
288 292 297 302 301 300 302 297 296 291 292 302 304 314 314 308 302 319 326 336 342 344 333 335 335 339 344 345 350 353 354 0 356 354 353 352 351 350 349 351 354 1 5
285 287 289 291 296 300 303 300 295 294 298 297 299 300 302 304 303 306 310 316 320 329 326 323 322 325 328 335 341 343 344 344 339 343 352 351 352 354 356 355 351 357 2
283 284 285 289 291 296 299 299 302 298 295 296 295 296 300 303 304 305 304 315 321 321 322 322 321 323 329 333 335 338 337 335 334 334 341 342 346 349 356 354 352 354 355
273 281 284 287 288 290 296 298 297 296 292 293 295 300 296 297 302 305 308 312 317 317 316 316 318 321 321 322 324 326 330 336 338 339 334 328 340 343 350 353 351 354 354
279 278 286 284 286 291 296 285 293 299 299 296 295 296 298 298 299 299 304 307 312 316 323 326 331 334 334 322 318 322 324 326 327 330 332 331 332 336 340 343 349 349 353
280 284 287 294 291 295 289 295 281 286 287 296 297 298 301 300 299 300 304 308 308 311 315 318 324 330 331 337 333 328 327 321 321 324 329 325 328 331 330 335 339 344 347